Content
SEND FEEDBACK

Daily
Averages
Monthly
Summary
Thailand

KHON KAEN, THAILAND


Home > Asia > Thailand
Elevation: 515 feet     Latitude: 16 20N     Longitude: 102 51E

WEATHER
 
SELECT A DAY
Number of Records: 65,672;   Date Range: 12/16/03 - 8/30/14
 
SHARE

PRINT THIS DATA

[ ← Previous Day ]
WEATHER ALMANAC - SEPTEMBER 28, 2013
[ Next Day → ]
[ °C ]   °F
Weather ElementAverageHighLow
Temperature79 °F87.8 °F (2:00 pm)75.2 °F (1:00 am)
Dewpoint75.9 °F77 °F (8:00 am)73 °F (1:00 am)
Humidity90.5 %100 % (1:00 am)70 % (1:00 pm)
Barometer29.78 in29.86 in (9:00 am)29.71 in (2:00 pm)
Wind Speed5 mph35.7 mph (3:00 am)
Weather ElementAverage
Visibility5.9 mi
Wind DirectionENE (63 °)

Weather ElementTotal
Precipitation---
Cooling Degree Days16.5 (Base 65)
Growing Degree Days31.5 (Base 50)
Averaged from 22 records on September 28, 2013
WEATHER CONDITIONS BREAKOUT
WIND DIRECTION BREAKOUT
WEATHER BY HOUR - SEPTEMBER 28, 2013
[ °C ]   °F
Local TimeTemperatureDewpointHumidityBarometerVisibilityWind DirectionWind SpeedGust SpeedPrecipitationEventsConditions
1:00 AM76.0 °F73.0 °F87 %29.80 in6.0 miESE (120°)4.6 mphScattered Clouds
1:00 AM75.2 °F75.2 °F100 %29.80 in6.2 miESE (120°)4.6 mphMostly Cloudy
2:00 AM75.2 °F75.2 °F100 %29.80 in6.2 miVariable1.2 mphMostly Cloudy
3:00 AM75.2 °F75.2 °F100 %29.80 in6.2 miNNE (30°)35.7 mphMostly Cloudy
6:00 AM75.2 °F75.2 °F100 %29.80 in5.0 miCalmMostly Cloudy
7:00 AM75.2 °F75.2 °F100 %29.80 in4.3 miCalmMostly Cloudy
7:00 AM76.0 °F75.0 °F94 %29.79 in4.0 miCalmMist
8:00 AM78.8 °F77.0 °F94 %29.83 in6.2 miNNE (20°)4.6 mphMostly Cloudy
9:00 AM80.6 °F77.0 °F89 %29.86 in6.2 miENE (60°)3.5 mphMostly Cloudy
10:00 AM82.4 °F77.0 °F84 %29.86 in6.2 miENE (70°)5.8 mphMostly Cloudy
11:00 AM82.4 °F75.2 °F79 %29.83 in6.2 miEast (90°)5.8 mphMostly Cloudy
12:00 PM84.2 °F75.2 °F74 %29.80 in6.2 miENE (70°)6.9 mphMostly Cloudy
1:00 PM86.0 °F75.2 °F70 %29.77 in6.2 miENE (70°)6.9 mphMostly Cloudy
2:00 PM87.8 °F77.0 °F70 %29.71 in6.2 miNE (40°)6.9 mphScattered Clouds
3:00 PM86.0 °F77.0 °F74 %29.71 in6.2 miNorth (10°)6.9 mphMostly Cloudy
4:00 PM77.0 °F77.0 °F100 %29.71 in4.3 miNNW (340°)10.4 mphRainRain
5:00 PM78.8 °F77.0 °F94 %29.71 in6.2 miSW (220°)3.5 mphMostly Cloudy
6:00 PM77.0 °F77.0 °F100 %29.71 in6.2 miVariable2.3 mphMostly Cloudy
7:00 PM79.0 °F76.0 °F89 %29.72 in6.0 miCalmScattered Clouds
7:00 PM77.0 °F77.0 °F100 %29.71 in6.2 miCalmThunderstormThunderstorm
8:00 PM77.0 °F75.2 °F94 %29.77 in6.2 miCalmMostly Cloudy
9:00 PM77.0 °F77.0 °F100 %29.80 in6.2 miCalmMostly Cloudy
Hourly data recorded from VTUK, located miles away from Khon Kaen, Thailand







STORIES FROM OUR PARTNERS